Regional Weather Roundup
Issued by NWS Charleston, SC

Current Version | Previous Version | Graphics & Text | Print | Product List | Glossary On
Versions: 1 2 3 4 5 6 7 8 9 10 11 12 13 14 15 16 17 18 19 20 21 22 23 24 25 26 27 28 29 30 31 32 33 34 35 36 37 38 39 40 41 42 43 44 45 46 47 48 49 50
000
ASUS42 KCHS 240627
RWRCHS

REGIONAL WEATHER ROUNDUP
NATIONAL WEATHER SERVICE CHARLESTON SC
100 AM EST FRI NOV 24 2017

NOTE: "FAIR" INDICATES FEW OR NO CLOUDS BELOW 12,000 FEET WITH NO
SIGNIFICANT WEATHER AND/OR OBSTRUCTIONS TO VISIBILITY.

NOT ALL STATIONS ARE QUALITY CONTROLLED. USE DATA WITH CAUTION...
ESPECIALLY DEWPOINT OBSERVATIONS.

SCZ027-030-031-034>040-042>050-240700-
...SOUTHEAST SOUTH CAROLINA...

CITY           SKY/WX    TMP DP  RH WIND       PRES   REMARKS
N CHARLESTON   MOCLDY    45  42  89 N12       29.99F
6HR MIN TEMP:  44; 6HR MAX TEMP:  46; 6HR PCP:  0.01;

WATERFRONT PRK   N/A     48  46  93 N10       29.84F
JOHNS ISLAND   CLOUDY    48  45  87 N8        29.97F
PINOPOLIS        N/A     46  43  87 NE10      29.94F
MONCKS CORNER  FAIR      45  39  81 N6        30.00F
SUMMERVILLE    FAIR      43  41  93 N6        30.01F
BEAUFORT MCAS  NOT AVBL
BEAUFORT ARPT  CLOUDY    46  43  87 N7        29.98S
HILTON HEAD IS CLOUDY    48  45  87 N14       29.98S
WALTERBORO     CLOUDY    43  39  87 N5        30.01F
ALLENDALE      FAIR      41  37  87 N6        30.01F

...SOUTHERN MIDLANDS AND PEE DEE...

CITY           SKY/WX    TMP DP  RH WIND       PRES   REMARKS
GEORGETOWN     CLOUDY    45  43  93 N5        30.01F
KINGSTREE      FAIR      39  36  87 N3        30.04S
ORANGEBURG     CLEAR     40  34  79 N6        30.03F WCI  36
6HR MIN TEMP:  39; 6HR MAX TEMP:  46;

BARNWELL         N/A     41  36  81 N6        30.02F
AIKEN          FAIR      32  32 100 CALM      30.06F
MANNING        FAIR      39  32  75 MISG      30.03F
COLUMBIA       CLEAR     35  32  88 CALM      30.05S
6HR MIN TEMP:  35; 6HR MAX TEMP:  49;

SUMTER         CLEAR     37  31  79 N3        30.03S
6HR MIN TEMP:  37; 6HR MAX TEMP:  43;

FLORENCE       CLEAR     38  34  85 N5        30.05F WCI  34
6HR MIN TEMP:  37; 6HR MAX TEMP:  46;

MYRTLE BEACH   CLOUDY    46  43  89 N9        30.02F
N MYRTLE BEACH CLOUDY    46  42  86 N7        30.01S
6HR MIN TEMP:  46; 6HR MAX TEMP:  47; 6HR PCP: TRACE;


$$

GAZ063-065-086>088-099>101-113>116-118-119-134>141-150-240700-
...SOUTHEAST GEORGIA...

CITY           SKY/WX    TMP DP  RH WIND       PRES   REMARKS
SAVANNAH ARPT  CLOUDY    47  43  86 N7        29.99F
6HR MIN TEMP:  46; 6HR MAX TEMP:  49;

HUNTER AAF     CLOUDY    47  44  87 N3        29.96S
6HR MIN TEMP:  47; 6HR MAX TEMP:  49;

FORT STEWART   CLOUDY    47  42  83 N5        29.97S
6HR MIN TEMP:  47; 6HR MAX TEMP:  49; 6HR PCP: TRACE;

STATESBORO     CLEAR     43  37  81 CALM      30.00F
SYLVANIA       PTCLDY    43  40  89 NE3       30.01F
CLAXTON        FAIR      46  41  82 CALM      30.00F

...CSRA...CENTRAL AND FAR SOUTHEAST GEORGIA...

CITY           SKY/WX    TMP DP  RH WIND       PRES   REMARKS
THOMSON        CLEAR     34  33  94 CALM      30.09S
AUGUSTA-BUSH   PTCLDY    36  35  96 CALM      30.03F
6HR MIN TEMP:  35; 6HR MAX TEMP:  46;

AUGUSTA-DANIEL CLEAR     44  36  73 NE6       30.04S
SWAINSBORO     FAIR      45  37  76 NE9       30.02S
VIDALIA        CLEAR     45  43  93 N3        30.00S
EASTMAN        FAIR      47  36  65 NE5       30.03F
HAZLEHURST     FAIR      49  41  74 CALM      29.98F
ALMA           CLEAR     50  46  86 N6        29.98F
6HR MIN TEMP:  50; 6HR MAX TEMP:  54;

WAYCROSS       CLOUDY    51  48  90 NE8       29.97F
JESUP          CLOUDY    50  45  81 CALM      29.97F
BAXLEY         FAIR      45  45 100 N3        29.98F
BRUNSWICK      CLOUDY    50  46  87 N7        29.95F
SAINT SIMONS   CLOUDY    52  50  93 N13       29.94F
6HR MIN TEMP:  52; 6HR MAX TEMP:  56;


$$

SCZ027-028-034-036>038-045-046-048>050-GAZ119-141-240700-
...LAKE AND SUPPLEMENTAL COASTAL OBSERVATIONS...

STATION/POSITION TIME  TEMP    WIND        PRES    WAVE   SWELL
                       AIR SEA DIR/SP/G            HT/PER HT/PER/DIR
                 (UTC) (F)     (DEG/KT/KT) (MB)    (FT/S) (FT/S/D)
WINYAH BAY       0545   46     350/  6     1016.0S
LAKE MURRAY      0550   44      CALM  /  3 1016.9S
ACE BASIN NERRS  0545   45     360/  3     1015.0F
FORT PULASKI     0600   50 61  360/  7/  8 1015.1
SAPELO ISLAND    0600   51     360/ 10     1014.0

$$

ANZ835-935-AMZ111-154-330-350-352-354-370-450-454-472-240700-
...C-MAN AND BUOY OBSERVATIONS...

STATION/POSITION TIME  TEMP    WIND        PRES    WAVE   SWELL
                       AIR SEA DIR/SP/G            HT/PER HT/PER/DIR
                 (UTC) (F)     (DEG/KT/KT) (MB)    (FT/S) (FT/S/D)
BUOY 41004       0610   66      30/ 19/ 25 1012.5
BUOY 41008       0550   58 67   30/ 19/ 25 1012.9F   6/ 6   3/110/10
FOLLY BEACH CMAN 0600   49     350/ 11/ 15 1015.1F
CAPERS NEARSHORE 0608   48 61   10/ 17/ 23 1014.2F
FRIPP NEARSHORE  0608   49 62  340/ 10/ 21 1013.3F


STATION/POSITION TIME  TEMP    WIND        PRES    WAVE   SWELL
                       AIR SEA DIR/SP/G            HT/PER HT/PER/DIR
                 (UTC) (F)     (DEG/KT/KT) (MB)    (FT/S) (FT/S/D)
5E ST. MARYS GA  0600      66                N/A     7/ 7   2/100/11
FRYING PAN BUOY  0610   62 72   40/ 17/ 23 1013.9
BUOY 41025       0610   57 72   20/ 16/ 19 1016.5
CAPE LOOKOUT NC  0600           20/ 12/ 16 1016.6F
BUOY 41002       0550   69 76   30/ 10/ 14 1012.1S   9/10   8/110/10
BUOY 41010       NOT AVBL
ST AUGUSTINE FL  0600   64 68  360/ 29/ 31 1011.0S


$$



USA.gov is the U.S. government's official web portal to all federal, state and local government web resources and services.